| time (UTC) | temp C | wind direction | speed KPH | gust KPH | rain 1hr cm | rain 24hr cm | rain mn cm | humidity % | barometer mb |
| 20260507023239 | 7 | 355 | 0.0 | 1.6 | 0.00 | 1.37 | 0.00 | 93 | 1011.4 |
| 20260507022231 | 7 | 0.0 | 0.0 | 0.00 | 1.40 | 0.00 | 93 | 1011.4 | |
| 20260507021228 | 7 | 342 | 0.0 | 1.6 | 0.00 | 1.42 | 0.00 | 94 | 1011.4 |
| 20260507020225 | 7 | 0.0 | 0.0 | 0.00 | 1.47 | 0.00 | 94 | 1011.3 | |
| 20260507015224 | 7 | 0.0 | 0.0 | 0.00 | 1.52 | 0.00 | 94 | 1011.3 | |
| 20260507014219 | 7 | 306 | 0.0 | 1.6 | 0.00 | 1.55 | 0.00 | 94 | 1011.2 |
| 20260507013216 | 7 | 314 | 0.0 | 1.6 | 0.00 | 1.60 | 0.00 | 94 | 1011.1 |
| 20260507012233 | 7 | 0.0 | 0.0 | 0.00 | 1.65 | 0.00 | 94 | 1011.0 | |
| 20260507011230 | 7 | 0.0 | 0.0 | 0.00 | 1.70 | 0.00 | 94 | 1010.9 | |
| 20260507010231 | 6 | 0.0 | 0.0 | 0.00 | 1.75 | 0.00 | 94 | 1010.9 | |
| 20260507005223 | 6 | 0.0 | 0.0 | 0.00 | 1.78 | 0.00 | 94 | 1010.9 | |
| 20260507004220 | 6 | 0.0 | 0.0 | 0.00 | 1.83 | 0.00 | 93 | 1010.9 | |
| 20260507003217 | 6 | 0.0 | 0.0 | 0.00 | 1.85 | 0.00 | 93 | 1010.9 | |
| 20260507002234 | 6 | 0.0 | 0.0 | 0.00 | 1.91 | 0.00 | 92 | 1010.9 | |
| 20260507001231 | 6 | 0.0 | 0.0 | 0.00 | 1.96 | 0.00 | 92 | 1010.8 | |
| 20260507000227 | 7 | 0.0 | 0.0 | 0.00 | 1.98 | 0.00 | 91 | 1010.6 | |
| 20260506235224 | 7 | 348 | 0.0 | 1.6 | 0.00 | 2.01 | 0.00 | 91 | 1010.7 |
| 20260506234222 | 7 | 0.0 | 0.0 | 0.00 | 2.03 | 0.00 | 90 | 1010.7 | |
| 20260506233218 | 7 | 0.0 | 0.0 | 0.00 | 2.06 | 0.00 | 90 | 1010.7 | |
| 20260506232235 | 7 | 0.0 | 0.0 | 0.00 | 2.08 | 0.00 | 90 | 1010.6 | |
| 20260506231236 | 7 | 0.0 | 0.0 | 0.00 | 2.11 | 0.00 | 90 | 1010.6 | |
| 20260506230234 | 7 | 0.0 | 0.0 | 0.00 | 2.13 | 0.00 | 88 | 1010.5 | |
| 20260506225225 | 8 | 0.0 | 0.0 | 0.00 | 2.16 | 0.00 | 87 | 1010.5 | |
| 20260506224222 | 8 | 330 | 0.0 | 1.6 | 0.00 | 2.21 | 0.00 | 87 | 1010.6 |
| 20260506223219 | 8 | 0.0 | 0.0 | 0.00 | 2.21 | 0.00 | 86 | 1010.5 | |
| 20260506222216 | 8 | 350 | 0.0 | 1.6 | 0.00 | 2.21 | 0.00 | 86 | 1010.4 |
| 20260506221233 | 8 | 357 | 0.0 | 1.6 | 0.00 | 2.21 | 0.00 | 86 | 1010.4 |
| 20260506220229 | 8 | 345 | 0.0 | 1.6 | 0.00 | 2.21 | 2.21 | 86 | 1010.4 |
| 20260506215227 | 8 | 345 | 0.0 | 1.6 | 0.00 | 2.21 | 2.21 | 86 | 1010.3 |
| 20260506214224 | 8 | 350 | 0.0 | 1.6 | 0.00 | 2.24 | 2.21 | 87 | 1010.2 |
| 20260506213220 | 8 | 1 | 0.0 | 1.6 | 0.00 | 2.24 | 2.21 | 88 | 1010.2 |
| 20260506212217 | 7 | 0.0 | 0.0 | 0.00 | 2.24 | 2.21 | 89 | 1010.3 | |
| 20260506211234 | 7 | 0.0 | 0.0 | 0.00 | 2.24 | 2.21 | 90 | 1010.1 | |
| 20260506210231 | 7 | 0.0 | 0.0 | 0.00 | 2.24 | 2.21 | 89 | 1010.2 | |
| 20260506205228 | 8 | 0.0 | 0.0 | 0.00 | 2.24 | 2.21 | 87 | 1010.1 | |
| 20260506204224 | 8 | 357 | 0.0 | 1.6 | 0.00 | 2.24 | 2.21 | 86 | 1010.1 |
| 20260506203221 | 8 | 356 | 0.0 | 1.6 | 0.00 | 2.24 | 2.21 | 87 | 1009.9 |
| 20260506202218 | 8 | 353 | 0.0 | 4.8 | 0.00 | 2.24 | 2.21 | 88 | 1009.9 |
| 20260506201235 | 8 | 0.0 | 0.0 | 0.00 | 2.24 | 2.21 | 88 | 1009.9 | |
| 20260506200231 | 8 | 0.0 | 0.0 | 0.00 | 2.24 | 2.21 | 88 | 1009.9 | |
| 20260506195230 | 8 | 0.0 | 0.0 | 0.00 | 2.24 | 2.21 | 86 | 1009.7 | |
| 20260506194225 | 8 | 344 | 1.6 | 1.6 | 0.00 | 2.24 | 2.21 | 86 | 1009.7 |
| 20260506193222 | 8 | 359 | 0.0 | 3.2 | 0.00 | 2.24 | 2.21 | 87 | 1009.6 |
| 20260506192218 | 8 | 0.0 | 0.0 | 0.00 | 2.24 | 2.21 | 88 | 1009.5 | |
| 20260506191236 | 8 | 352 | 1.6 | 3.2 | 0.00 | 2.24 | 2.21 | 88 | 1009.2 |
| 20260506190232 | 8 | 355 | 0.0 | 1.6 | 0.00 | 2.24 | 2.21 | 89 | 1009.2 |
| 20260506185228 | 8 | 351 | 0.0 | 1.6 | 0.00 | 2.24 | 2.21 | 89 | 1009.2 |
| 20260506184225 | 8 | 0.0 | 0.0 | 0.00 | 2.24 | 2.21 | 89 | 1009.2 | |
| 20260506183221 | 8 | 0.0 | 0.0 | 0.00 | 2.24 | 2.21 | 89 | 1009.0 | |
| 20260506182218 | 8 | 337 | 0.0 | 1.6 | 0.00 | 2.24 | 2.21 | 90 | 1008.9 |
| 20260506181235 | 8 | 358 | 0.0 | 1.6 | 0.00 | 2.24 | 2.21 | 89 | 1008.8 |
| 20260506180231 | 8 | 354 | 0.0 | 4.8 | 0.00 | 2.24 | 2.21 | 89 | 1008.7 |
| 20260506175228 | 8 | 293 | 0.0 | 3.2 | 0.00 | 2.24 | 2.21 | 89 | 1008.6 |
| 20260506174226 | 8 | 340 | 1.6 | 6.4 | 0.00 | 2.24 | 2.21 | 88 | 1008.5 |
| 20260506173222 | 8 | 325 | 1.6 | 4.8 | 0.00 | 2.24 | 2.21 | 88 | 1008.5 |
| 20260506172218 | 8 | 341 | 1.6 | 4.8 | 0.00 | 2.24 | 2.21 | 89 | 1008.5 |
| 20260506171242 | 8 | 299 | 1.6 | 4.8 | 0.00 | 2.24 | 2.21 | 90 | 1008.4 |
| 20260506170232 | 8 | 355 | 1.6 | 3.2 | 0.00 | 2.24 | 2.21 | 90 | 1008.4 |
| 20260506165228 | 8 | 317 | 0.0 | 4.8 | 0.00 | 2.24 | 2.21 | 90 | 1008.3 |
| 20260506164225 | 8 | 332 | 1.6 | 3.2 | 0.00 | 2.24 | 2.21 | 89 | 1008.3 |
| 20260506163222 | 8 | 316 | 1.6 | 4.8 | 0.00 | 2.24 | 2.21 | 90 | 1008.3 |
| 20260506162218 | 8 | 340 | 1.6 | 4.8 | 0.00 | 2.24 | 2.21 | 90 | 1008.3 |
| 20260506161235 | 8 | 276 | 1.6 | 6.4 | 0.00 | 2.24 | 2.21 | 91 | 1008.4 |
| 20260506160232 | 8 | 325 | 1.6 | 3.2 | 0.00 | 2.24 | 2.21 | 92 | 1008.3 |
| 20260506155228 | 8 | 333 | 0.0 | 4.8 | 0.00 | 2.24 | 2.21 | 92 | 1008.1 |
| 20260506154225 | 8 | 11 | 1.6 | 4.8 | 0.00 | 2.24 | 2.21 | 93 | 1008.2 |
| 20260506153222 | 8 | 258 | 1.6 | 6.4 | 0.00 | 2.24 | 2.21 | 93 | 1008.0 |
| 20260506152218 | 8 | 322 | 1.6 | 3.2 | 0.00 | 2.24 | 2.21 | 94 | 1007.9 |
| 20260506151235 | 8 | 333 | 1.6 | 4.8 | 0.00 | 2.24 | 2.21 | 94 | 1007.8 |
| 20260506150233 | 8 | 298 | 1.6 | 4.8 | 0.00 | 2.24 | 2.21 | 95 | 1007.7 |
| 20260506145229 | 8 | 318 | 1.6 | 4.8 | 0.00 | 2.24 | 2.21 | 95 | 1007.7 |
| 20260506144225 | 8 | 324 | 0.0 | 3.2 | 0.00 | 2.24 | 2.21 | 96 | 1007.6 |
| 20260506143223 | 8 | 328 | 0.0 | 1.6 | 0.03 | 2.24 | 2.21 | 96 | 1007.6 |
| 20260506142218 | 8 | 0.0 | 0.0 | 0.05 | 2.24 | 2.21 | 96 | 1007.7 | |
| 20260506141235 | 8 | 333 | 0.0 | 3.2 | 0.08 | 2.24 | 2.21 | 96 | 1007.7 |
| 20260506140232 | 8 | 318 | 0.0 | 3.2 | 0.10 | 2.24 | 2.21 | 95 | 1007.7 |
| 20260506135229 | 8 | 334 | 0.0 | 3.2 | 0.10 | 2.24 | 2.21 | 95 | 1007.6 |
| 20260506134227 | 8 | 317 | 1.6 | 3.2 | 0.13 | 2.24 | 2.21 | 95 | 1007.6 |
| 20260506133222 | 8 | 341 | 1.6 | 3.2 | 0.10 | 2.21 | 2.18 | 95 | 1007.5 |
| 20260506132219 | 8 | 312 | 1.6 | 4.8 | 0.10 | 2.18 | 2.16 | 94 | 1007.6 |
| 20260506131215 | 8 | 353 | 1.6 | 3.2 | 0.08 | 2.16 | 2.13 | 94 | 1007.6 |
| 20260506130232 | 8 | 331 | 1.6 | 6.4 | 0.05 | 2.13 | 2.11 | 94 | 1007.5 |
| 20260506125229 | 8 | 331 | 1.6 | 4.8 | 0.05 | 2.13 | 2.11 | 94 | 1007.3 |
| 20260506124225 | 8 | 321 | 1.6 | 3.2 | 0.03 | 2.11 | 2.08 | 94 | 1007.3 |
| 20260506123222 | 8 | 342 | 1.6 | 4.8 | 0.05 | 2.11 | 2.08 | 94 | 1007.2 |
| 20260506122219 | 8 | 352 | 0.0 | 1.6 | 0.03 | 2.08 | 2.06 | 95 | 1007.2 |
| 20260506121216 | 8 | 357 | 0.0 | 3.2 | 0.05 | 2.08 | 2.06 | 95 | 1007.1 |
| 20260506120233 | 8 | 332 | 0.0 | 3.2 | 0.05 | 2.08 | 2.06 | 95 | 1007.1 |
| 20260506115229 | 8 | 343 | 0.0 | 3.2 | 0.08 | 2.08 | 2.06 | 95 | 1007.0 |
| 20260506114225 | 8 | 347 | 1.6 | 3.2 | 0.08 | 2.08 | 2.06 | 94 | 1007.0 |
| 20260506113216 | 8 | 0.0 | 0.0 | 0.05 | 2.06 | 2.03 | 95 | 1007.1 | |
| 20260506112218 | 8 | 327 | 1.6 | 4.8 | 0.08 | 2.06 | 2.03 | 94 | 1007.0 |
| 20260506111235 | 8 | 333 | 1.6 | 3.2 | 0.05 | 2.03 | 2.01 | 94 | 1007.1 |
| 20260506110231 | 8 | 289 | 1.6 | 9.7 | 0.05 | 2.03 | 2.01 | 94 | 1006.9 |
| 20260506105230 | 8 | 326 | 1.6 | 3.2 | 0.03 | 2.01 | 1.98 | 94 | 1006.9 |
| 20260506104225 | 7 | 353 | 1.6 | 9.7 | 0.03 | 2.01 | 1.98 | 95 | 1006.8 |
| 20260506103222 | 7 | 319 | 1.6 | 4.8 | 0.03 | 2.01 | 1.98 | 95 | 1006.8 |
| 20260506102218 | 7 | 329 | 0.0 | 3.2 | 0.00 | 1.98 | 1.96 | 95 | 1006.8 |
| 20260506101237 | 7 | 308 | 1.6 | 6.4 | 0.00 | 1.98 | 1.96 | 95 | 1006.6 |
| 20260506100232 | 7 | 313 | 1.6 | 6.4 | 0.00 | 1.98 | 1.96 | 95 | 1006.6 |
| 20260506095228 | 7 | 343 | 1.6 | 3.2 | 0.00 | 1.98 | 1.96 | 95 | 1006.6 |
| 20260506094226 | 7 | 314 | 1.6 | 6.4 | 0.03 | 1.98 | 1.96 | 95 | 1006.5 |
| 20260506093222 | 7 | 317 | 1.6 | 4.8 | 0.03 | 1.98 | 1.96 | 96 | 1006.5 |
| 20260506092218 | 7 | 330 | 1.6 | 4.8 | 0.03 | 1.98 | 1.96 | 96 | 1006.4 |
| 20260506091235 | 7 | 343 | 1.6 | 6.4 | 0.03 | 1.98 | 1.96 | 96 | 1006.4 |
| 20260506090231 | 7 | 346 | 1.6 | 4.8 | 0.05 | 1.98 | 1.96 | 96 | 1006.2 |
| 20260506085228 | 7 | 349 | 1.6 | 6.4 | 0.05 | 1.98 | 1.96 | 96 | 1006.3 |
| 20260506084225 | 7 | 320 | 1.6 | 6.4 | 0.05 | 1.96 | 1.93 | 96 | 1006.2 |
| 20260506083221 | 7 | 319 | 1.6 | 9.7 | 0.08 | 1.96 | 1.93 | 96 | 1006.2 |
| 20260506082218 | 7 | 317 | 1.6 | 6.4 | 0.10 | 1.96 | 1.93 | 97 | 1006.1 |
| 20260506081235 | 7 | 331 | 1.6 | 3.2 | 0.13 | 1.96 | 1.93 | 97 | 1006.0 |
| 20260506080232 | 7 | 331 | 0.0 | 6.4 | 0.13 | 1.93 | 1.91 | 97 | 1006.0 |
| 20260506073221 | 7 | 323 | 1.6 | 6.4 | 0.13 | 1.88 | 1.85 | 97 | 1005.9 |
| 20260506072218 | 7 | 330 | 0.0 | 4.8 | 0.13 | 1.85 | 1.83 | 97 | 1005.8 |
| 20260506071234 | 7 | 344 | 1.6 | 4.8 | 0.13 | 1.83 | 1.80 | 97 | 1005.8 |
| 20260506070232 | 7 | 310 | 1.6 | 3.2 | 0.13 | 1.80 | 1.78 | 97 | 1005.8 |
| 20260506062218 | 7 | 345 | 1.6 | 4.8 | 0.15 | 1.73 | 1.70 | 97 | 1005.4 |
| 20260506061235 | 8 | 310 | 0.0 | 4.8 | 0.18 | 1.70 | 1.68 | 97 | 1005.3 |
| 20260506060231 | 8 | 357 | 1.6 | 3.2 | 0.20 | 1.68 | 1.65 | 97 | 1005.3 |
| 20260506051233 | 8 | 329 | 1.6 | 3.2 | 0.28 | 1.57 | 1.50 | 97 | 1005.2 |
| 20260506050230 | 8 | 294 | 1.6 | 3.2 | 0.28 | 1.52 | 1.45 | 97 | 1005.2 |
| 20260506044223 | 8 | 353 | 1.6 | 3.2 | 0.25 | 1.45 | 1.35 | 98 | 1005.2 |
| 20260506043220 | 8 | 359 | 1.6 | 4.8 | 0.25 | 1.42 | 1.32 | 98 | 1005.2 |
| 20260506042217 | 8 | 360 | 0.0 | 1.6 | 0.23 | 1.37 | 1.27 | 97 | 1005.2 |
| 20260506041234 | 8 | 342 | 0.0 | 3.2 | 0.23 | 1.32 | 1.22 | 97 | 1005.3 |
| 20260506040230 | 8 | 305 | 0.0 | 3.2 | 0.20 | 1.30 | 1.17 | 97 | 1005.3 |
| 20260506035227 | 8 | 334 | 1.6 | 4.8 | 0.23 | 1.27 | 1.14 | 97 | 1005.2 |
| 20260506034224 | 8 | 329 | 1.6 | 4.8 | 0.20 | 1.22 | 1.09 | 97 | 1005.3 |
| 20260506033220 | 8 | 286 | 0.0 | 3.2 | 0.23 | 1.19 | 1.07 | 97 | 1005.4 |
| 20260506032218 | 8 | 342 | 0.0 | 1.6 | 0.23 | 1.17 | 1.04 | 97 | 1005.4 |
| 20260506031235 | 8 | 360 | 1.6 | 4.8 | 0.20 | 1.12 | 0.99 | 97 | 1005.4 |
| 20260506030231 | 8 | 310 | 1.6 | 3.2 | 0.23 | 1.09 | 0.97 | 97 | 1005.6 |
| 20260506025233 | 8 | 324 | 0.0 | 3.2 | 0.23 | 1.04 | 0.91 | 97 | 1005.7 |
| 20260506024225 | 9 | 309 | 1.6 | 4.8 | 0.23 | 1.02 | 0.89 | 97 | 1005.7 |